Probability
0 0 0 0 0 1 2 3 3 1 0 1 2 2 1 0 0 0 0 0 0 0 0 0 0 0 0 0 0 0 0 0 0 0 0 0 0 0 0 0 0 0 0
0 0 0 0 0 0 1 2 3 2 1 0 1 1 0 0 0 0 0 0 0 0 0 0 0 0 0 0 0 0 0 0 0 0 0 0 0 0 0 0 0 0 0
0 0 0 0 0 0 0 1 3 3 2 1 0 0 0 0 0 0 0 0 0 0 0 0 0 0 0 0 0 0 0 0 0 0 0 0 0 0 0 0 0 0 0
0 0 0 0 0 0 0 1 2 3 3 2 1 0 0 0 0 0 0 0 0 0 0 0 0 0 0 0 0 0 0 0 0 0 0 0 0 0 0 0 0 0 0
0 0 0 0 0 0 0 0 1 2 3 3 2 1 0 0 0 0 0 0 0 0 0 0 0 0 0 0 0 0 0 0 0 0 0 0 0 0 0 0 0 0 0
0 0 0 0 0 0 0 0 0 1 2 3 3 2 1 0 0 0 0 0 0 0 0 0 0 0 0 0 0 0 0 0 0 0 0 0 0 0 0 0 0 0 0
0 0 0 0 0 0 0 0 0 0 1 3 3 3 2 1 0 0 0 0 0 0 0 0 0 0 0 0 0 0 0 0 0 0 0 0 0 0 0 0 0 0 0
0 0 0 0 0 0 0 0 0 0 1 2 3 3 3 1 0 0 0 0 0 0 0 0 0 0 0 0 0 0 0 0 0 0 0 0 0 0 0 0 0 0 0
0 0 0 0 0 0 0 0 0 0 1 2 3 3 3 2 1 0 0 0 0 0 0 0 0 0 0 0 0 0 0 0 0 0 0 0 0 0 0 0 0 0 0
0 0 0 0 0 0 0 0 0 0 1 2 3 3 3 3 1 0 0 0 0 0 0 0 0 0 0 0 0 0 0 0 0 0 0 0 0 0 0 0 0 0 0
0 0 0 0 0 0 0 0 0 0 1 2 3 3 3 3 2 1 0 0 0 0 0 0 0 0 0 0 0 0 0 0 0 0 0 0 0 0 0 0 0 0 0
0 0 0 0 0 0 0 0 0 0 0 1 1 2 2 3 2 1 0 0 0 0 0 0 0 0 0 0 0 0 0 0 0 0 0 0 0 0 0 0 0 0 0
0 0 0 0 0 0 0 0 0 0 0 0 0 1 1 1 1 1 0 0 0 0 0 0 0 0 0 0 0 0 0 0 0 0 0 0 0 0 0 0 0 0 0
0 0 0 0 0 0 0 0 0 0 0 0 0 0 0 0 0 0 0 0 0 0 0 0 0 0 0 0 0 0 0 0 0 0 0 0 0 0 0 0 0 0 0
0 0 0 0 0 0 0 0 0 0 0 0 0 0 0 0 0 0 0 0 0 0 0 0 0 0 0 0 0 0 0 0 0 0 0 0 0 0 0 0 0 0 0
0 0 0 0 0 0 0 0 0 0 0 0 0 0 0 0 0 0 0 0 0 0 0 0 0 0 0 0 0 0 0 0 0 0 0 0 0 0 0 0 0 0 0
0 0 0 0 0 0 0 0 0 0 0 0 0 0 0 0 0 0 0 0 0 0 0 0 0 0 0 0 0 0 0 0 0 0 0 0 0 0 0 0 0 0 0
0 0 0 0 0 0 0 0 0 0 0 0 0 0 0 0 0 0 0 0 0 0 0 0 0 0 0 0 0 0 0 0 0 0 0 0 0 0 0 0 0 0 0
0 0 0 0 0 0 0 0 0 0 0 0 0 0 0 0 0 0 0 0 0 0 0 0 0 0 0 0 0 0 0 0 0 0 0 0 0 0 0 0 0 0 0
0 0 0 0 0 0 0 0 0 0 0 0 0 0 0 0 0 0 0 0 0 0 0 0 0 0 0 0 0 0 0 0 0 0 0 0 0 0 0 0 0 0 0
0 0 0 0 0 0 0 0 0 0 0 0 0 0 0 0 0 0 0 0 0 0 0 0 0 0 0 0 0 0 0 0 0 0 0 0 0 0 0 0 0 0 0
0 0 0 0 0 0 0 0 0 0 0 0 0 0 0 0 0 0 0 0 0 0 0 0 0 0 0 0 0 0 0 0 0 0 0 0 0 0 0 0 0 0 0
0 0 0 0 0 0 0 0 0 0 0 0 0 0 0 0 0 0 0 0 0 0 0 0 0 0 0 0 0 0 0 0 0 0 0 0 0 0 0 0 0 0 0
0 0 0 0 0 0 0 0 0 0 0 0 0 0 0 0 0 0 0 0 0 0 0 0 0 0 0 0 0 0 0 0 0 0 0 0 0 0 0 0 0 0 0
0 0 0 0 0 0 0 0 0 0 0 0 0 0 0 0 0 0 0 0 0 0 0 0 0 0 0 0 0 0 0 0 0 0 0 0 0 0 0 0 0 0 0
0 0 0 0 0 0 0 0 0 0 0 0 0 0 0 0 0 0 0 0 0 0 0 0 0 0 0 0 0 0 0 0 0 0 0 0 0 0 0 0 0 0 0
Wind_Speed
3 3 2 3 3 4 3 2 2 1 1 0 0 0 0 1 1 1 2 2 2 2 1 1 1 2 1 2 2 1 2 2 2 1 2 1 1 2 2 2 3 4 3
3 3 3 3 3 3 3 2 2 1 0 0 1 1 1 1 0 1 2 2 2 2 1 2 1 1 1 2 2 2 1 1 2 1 1 2 2 2 2 2 2 3 3
3 2 2 2 2 2 2 2 2 1 1 1 1 1 1 1 1 2 2 3 3 3 2 2 1 2 1 1 1 1 0 1 1 1 1 0 2 3 1 1 2 3 2
2 2 2 2 2 3 2 2 2 2 1 1 1 1 1 0 1 1 1 2 2 3 3 3 3 2 2 2 2 1 1 0 1 1 1 0 0 1 2 2 1 2 3
3 3 2 2 2 2 1 1 2 2 1 1 1 1 1 0 0 1 2 2 2 3 3 3 2 2 2 2 2 2 2 1 0 0 1 1 1 1 2 4 3 3 2
3 3 3 1 2 2 2 1 1 2 2 1 1 1 1 1 1 1 1 2 2 2 3 2 2 2 2 2 2 2 2 1 1 0 0 0 0 1 1 3 4 4 3
3 3 3 3 2 2 2 2 1 1 2 0 0 1 1 1 1 1 1 1 1 1 2 2 2 2 2 2 1 2 2 1 1 1 1 1 1 1 2 3 4 4 4
3 3 4 3 3 3 2 2 2 2 1 1 1 1 1 1 1 1 1 1 1 1 1 1 1 2 2 2 2 1 1 1 1 1 1 1 2 2 2 2 3 4 4
4 4 4 4 3 3 3 3 3 2 2 2 1 1 1 1 1 1 0 0 1 1 1 1 1 1 1 1 1 1 1 1 1 1 2 2 2 2 2 2 2 3 5
4 4 4 4 3 3 3 3 3 3 3 2 2 1 1 1 1 0 0 1 1 1 1 1 1 1 1 1 1 1 1 2 2 2 2 2 2 2 2 2 3 3 5
4 4 4 4 3 3 3 2 2 2 3 2 2 1 1 1 1 0 1 1 1 1 1 1 1 1 1 1 1 1 1 2 2 2 2 3 3 2 2 2 2 3 4
4 5 4 4 3 3 3 3 2 2 3 2 2 1 1 1 1 1 1 1 1 1 1 1 1 1 1 1 1 2 2 2 3 3 3 4 3 3 3 3 3 3 4
5 4 4 4 4 4 3 3 3 3 2 1 1 1 1 1 1 1 1 1 1 1 1 1 1 1 2 1 2 2 2 2 3 3 4 4 4 4 3 3 3 3 4
5 5 5 4 4 4 3 3 3 3 2 2 1 2 2 1 1 1 1 1 1 0 1 1 1 2 2 2 2 2 2 3 3 4 4 4 4 5 5 4 4 4 4
6 5 5 4 4 3 3 3 3 2 2 2 2 2 2 1 1 1 1 1 1 1 1 1 2 2 2 2 2 2 3 3 3 4 4 4 5 6 5 5 5 5 4
7 6 6 5 4 4 3 3 3 3 2 2 3 2 1 1 1 1 1 1 1 1 1 1 2 2 2 4 5 3 3 4 4 4 4 5 5 6 8 8 8 7 6
7 6 6 6 5 4 4 4 4 2 2 3 2 2 1 1 2 1 1 2 2 1 2 2 2 3 4 6 6 5 3 4 4 5 4 4 4 5 5 7 9 8 9
7 6 5 5 4 3 3 3 2 2 3 3 3 2 2 2 2 1 2 2 2 2 2 3 3 3 4 6 6 6 4 4 4 4 4 5 5 5 6 6 7 6 6
6 5 5 4 3 3 3 2 2 2 2 3 3 3 2 2 2 3 3 3 2 2 3 3 3 3 5 6 7 6 3 4 5 5 5 5 5 8 9 7 7 7 6
4 3 3 2 3 3 2 2 3 2 4 4 4 3 2 3 4 4 3 2 2 3 3 3 3 4 5 6 7 6 3 4 4 4 5 6 7 9 10 7 6 7 7
3 3 2 3 3 2 2 3 3 5 4 3 2 2 2 3 3 3 2 2 2 2 3 4 4 4 4 6 7 7 3 4 4 4 4 4 9 11 11 9 6 8 8
3 2 2 3 2 1 2 3 4 4 2 2 2 2 2 2 2 2 2 2 2 2 3 3 4 3 4 5 7 8 8 7 5 5 4 5 9 11 11 8 8 10 7
3 2 3 3 2 1 2 4 4 2 1 2 2 2 2 2 2 2 3 2 2 2 3 3 4 4 3 4 7 8 9 9 5 4 7 9 10 10 7 8 9 6 3
3 2 2 2 3 2 2 4 3 1 2 2 2 2 2 2 2 2 2 3 3 3 4 4 4 4 4 3 3 3 4 5 5 4 5 8 9 7 6 5 4 3 3
3 2 3 4 4 3 3 3 1 1 2 2 2 2 2 2 2 3 3 4 4 4 5 4 4 4 5 6 7 4 3 3 3 3 2 3 3 4 4 3 3 3 3
3 3 3 4 4 3 3 2 2 2 2 2 2 2 2 2 2 3 4 6 6 7 9 8 6 5 7 8 8 8 7 6 5 2 3 4 4 4 5 5 5 4 4
Wind_Direction
320 344 351 354 6 9 9 359 15 14 43 77 144 126 79 29 32 37 31 21 8 7 20 9 13 19 25 13 3 347 15 15 5 3 348 353 37 58 42 33 31 26 21
326 337 347 1 360 351 350 350 341 346 39 300 214 180 165 126 74 31 30 17 2 354 16 24 14 12 14 26 22 15 350 7 23 15 335 325 330 26 18 29 36 20 15
274 301 322 331 339 333 326 323 327 341 6 17 59 65 64 39 27 6 12 11 12 9 11 20 28 19 26 20 14 3 346 277 329 29 72 354 289 322 332 15 27 20 4
270 276 285 307 303 294 312 328 328 342 356 54 93 105 118 129 293 320 333 7 24 32 25 21 28 26 24 16 357 0 333 270 282 331 5 354 204 268 302 312 7 4 350
269 267 268 268 284 297 312 320 325 333 346 55 99 140 150 184 359 359 10 12 20 30 22 23 31 25 17 12 7 4 7 3 333 322 330 328 331 288 266 291 314 325 317
280 283 293 297 308 331 333 331 329 333 346 33 96 160 203 223 50 1 354 357 5 14 12 13 15 12 10 7 4 7 18 8 11 1 352 335 297 283 273 275 294 301 301
277 286 290 295 302 315 316 315 306 313 326 328 212 219 230 229 213 234 264 314 341 344 348 1 5 4 3 8 14 25 18 9 17 329 290 291 278 287 276 272 288 294 295
277 273 274 277 281 286 289 285 275 275 286 270 254 248 243 233 244 239 232 246 285 298 337 358 8 9 12 9 9 17 355 3 357 339 303 292 290 293 284 274 286 298 292
273 272 279 277 269 269 267 255 249 257 265 259 257 268 256 234 254 279 296 265 288 309 3 16 16 7 9 7 9 9 343 347 339 318 306 290 290 290 282 280 269 269 286
281 280 279 274 268 260 260 257 240 238 249 247 238 240 248 230 202 184 259 286 301 327 349 349 359 356 351 349 8 356 347 353 331 321 312 298 288 281 280 277 273 263 263
275 274 274 271 265 266 264 265 258 250 252 245 239 240 252 238 195 189 240 267 300 304 306 316 340 343 342 341 350 330 327 322 320 317 309 300 294 289 285 276 271 271 267
270 271 270 271 262 260 260 258 262 257 255 245 227 223 235 226 214 242 261 270 283 305 302 305 337 332 330 324 316 308 314 304 302 300 298 294 295 290 285 280 276 272 269
278 280 274 266 258 253 251 250 250 252 255 236 218 219 226 225 235 254 271 278 278 309 316 311 301 303 307 306 303 303 305 298 293 294 292 290 291 291 289 282 278 278 281
272 272 269 262 259 247 240 239 245 239 231 216 218 232 239 233 243 255 262 257 244 269 297 298 287 288 295 295 296 300 303 301 299 297 292 290 287 284 285 283 278 278 283
274 266 262 259 262 257 246 237 240 234 218 213 227 240 243 228 226 241 274 277 274 273 271 288 299 300 296 288 302 307 302 300 302 302 298 294 292 287 285 285 284 284 283
266 264 261 256 253 248 243 237 239 233 206 214 236 245 231 228 240 252 251 270 274 298 300 287 291 297 294 296 297 299 302 301 297 297 299 298 293 293 294 294 293 289 285
259 257 254 249 247 241 231 232 237 225 206 219 237 241 223 234 250 254 256 263 270 267 272 276 277 282 282 290 295 296 300 296 292 290 295 297 298 292 291 294 296 295 289
250 249 245 245 244 234 225 230 225 211 212 221 236 241 225 233 245 244 253 262 265 261 264 268 266 275 283 291 295 301 294 288 284 283 284 288 293 294 297 294 292 289 287
238 236 231 232 237 237 225 211 218 212 220 233 241 244 231 233 239 244 252 256 257 265 267 276 265 270 282 286 292 299 296 288 290 289 289 286 289 294 301 302 296 295 294
234 227 223 215 233 243 199 194 220 220 235 241 243 239 228 229 239 245 253 260 254 260 270 275 271 264 270 281 288 293 286 289 295 295 292 286 292 300 304 300 295 294 296
233 217 211 225 237 228 177 206 226 237 242 241 240 240 235 236 242 252 261 260 259 272 273 277 280 271 268 278 282 286 286 281 289 291 293 291 295 298 300 301 295 294 306
245 216 216 243 247 199 187 224 243 250 240 217 227 238 241 242 242 243 259 256 245 258 269 275 284 279 274 274 280 283 282 286 282 284 289 291 298 301 302 301 301 308 314
246 231 222 247 264 219 200 232 258 255 220 216 236 247 253 250 244 234 242 249 240 246 261 264 272 281 280 278 278 281 284 285 283 282 289 297 301 305 302 301 308 314 307
241 233 220 238 258 250 233 241 262 229 199 231 249 248 248 259 255 247 239 238 238 243 252 258 266 275 281 278 281 280 281 282 284 288 297 298 299 299 303 308 308 302 289
233 213 220 238 253 254 250 256 253 181 210 239 250 254 247 250 257 252 246 246 242 236 245 249 252 261 270 272 281 291 284 287 287 317 310 300 299 296 297 298 294 293 293
227 224 230 241 254 253 250 251 224 196 209 239 245 243 249 253 257 269 284 272 269 274 268 265 265 268 274 289 284 282 286 290 295 301 279 279 281 284 288 290 292 287 283